Location: Unspecified
(0.0000°N, 0.0000°E)
Time: 09:56:48
(UTC+00:00)

COSMOS 2251 DEB - Pass Details

Date: 16 February 2026
Orbit: 744 x 1394 km, 73.9° (Epoch: 9 March)

Event Time Altitude Azimuth Distance (km) Brightness Sun altitude
Exits shadow 04:14:21 59° 325° (NW) 1,421 ? -29.2°
Maximum altitude 04:15:57 77° 258° (WSW) 1,306 ? -28.8°
Drops below altitude 10° 04:24:17 10° 173° (S) 3,430 ? -26.8°
Sets 04:27:15 0° 171° (S) 4,437 ? -26.0°
